Regional Weather Roundup
Issued by NWS

Home | Current Version | Previous Version | Text Only | Print | Product List | Glossary On
Versions: 1 2 3 4 5 6 7 8 9 10 11 12 13 14 15 16 17 18 19 20 21 22 23 24 25 26 27 28 29 30 31 32 33 34 35 36 37 38 39 40 41 42 43 44 45 46 47 48 49 50
057
ASUS43 KDTX 221510
RWRMI
MICHIGAN HOURLY REGIONAL WEATHER ROUNDUP
NATIONAL WEATHER SERVICE DETROIT/PONTIAC MI
1100 AM EDT SUN OCT 22 2017

NOTE: "FAIR" INDICATES FEW OR NO CLOUDS BELOW 12,000 FEET WITH NO
SIGNIFICANT WEATHER AND/OR OBSTRUCTION TO VISIBILITY.

MIZ047>049-052>055-059>063-066>070-074>076-081>083-221600-
SOUTHEAST LOWER MICHIGAN

CITY           SKY/WX    TMP DP  RH WIND       PRES   REMARKS
ADRIAN         SUNNY     66  51  58 S9        30.16F
ALMA           SUNNY     67  48  52 S14G23    30.07F
ANN ARBOR      SUNNY     65  52  62 S10       30.16S
BAD AXE        SUNNY     66  50  56 S13       30.12F
CARO           SUNNY     69  49  49 S9        30.10F
DETROIT CITY   SUNNY     67  54  63 S13       30.18S
DETROIT        MOSUNNY   67  54  63 S12       30.18S
FLINT          SUNNY     67  50  54 S13       30.12F
GROSSE ILE     SUNNY     63  56  78 S9        30.18S
HILLSDALE      SUNNY     64  50  59 S9G18     30.13F
HOWELL         SUNNY     66  51  59 S13G18    30.13F

CITY           SKY/WX    TMP DP  RH WIND       PRES   REMARKS
JACKSON        SUNNY     67  51  56 SE10      30.12F
LAMBERTVILLE   SUNNY     69  52  54 S7        30.16F
LANSING        SUNNY     66  51  58 S16G22    30.09F
LAPEER         FAIR      67  52  58 S9G16     30.14F
MASON          SUNNY     67  52  57 S14G23    30.11F
MONROE         SUNNY     67  52  57 S10       30.16F
MT. CLEMENS    MOSUNNY   66  59  76 S14       30.16F
PONTIAC        PTSUNNY   64  52  64 S12       30.15F
PORT HOPE        N/A     67  50  54 S9        30.10F
PORT HURON     SUNNY     70  55  60 S9        30.17F
TRI CITIES     SUNNY     67  52  58 S15G21    30.09R
MIDLAND        FAIR      69  51  53 S9        30.07S
TROY           SUNNY     67  53  61 S13       30.18S
SAGINAW HB     SUNNY     68  50  52 S14       30.08S
$$
MIZ043>046-050>051-056>058-064>065-071>073-077>080-221600-
SOUTHWEST LOWER MICHIGAN

CITY           SKY/WX    TMP DP  RH WIND       PRES   REMARKS
BATTLE CREEK   SUNNY     67  54  63 S18       30.08F
BENTON HARBOR  SUNNY     69  55  60 S12G23    30.01F
BIG RAPIDS     CLOUDY    65  49  57 S9G20     30.02F
COLDWATER      SUNNY     67  51  57 S13G22    30.09F
FREMONT        PTSUNNY   67  53  59 S8        30.00F
HOLLAND        MOSUNNY   70  55  59 S17G23    30.01F
GRAND RAPIDS   PTSUNNY   69  55  60 S16       30.03F
IONIA          FAIR      68  51  55 S15G22    30.05F
KALAMAZOO      SUNNY     68  52  56 S17       30.06F
LUDINGTON      CLOUDY    66  55  66 S8        29.95F
MARSHALL       SUNNY     66  53  61 S13G18    30.09F
MOUNT PLEASANT SUNNY     69  50  49 S12G17    30.05F
MUSKEGON       CLOUDY    71  55  56 S13G21    29.99F
SOUTH HAVEN    MOSUNNY   71  55  58 S10G22    30.01F
$$
MIZ016>042-221600-
NORTHERN LOWER MICHIGAN

CITY           SKY/WX    TMP DP  RH WIND       PRES   REMARKS
ALPENA         SUNNY     68  53  58 S12       30.05F
BEAVER ISLAND  MOSUNNY   67  54  63 S10G18    29.93S
BELLAIRE       CLOUDY    67  52  58 S10G21    29.97F
CADILLAC       PTSUNNY   67  51  56 S9G21     30.01S
CHARLEVOIX     MOSUNNY   68  55  61 S14G22    29.98S
FRANKFORT      CLOUDY    69  56  63 S13       29.94S
GAYLORD        SUNNY     65  51  60 S14       30.02S
GRAYLING       SUNNY     66  49  54 S10G18    30.03S
HARBOR SPRINGS PTSUNNY   68  52  56 S8        29.97S
HOUGHTON LAKE  SUNNY     65  50  58 S10G21    30.05S
MANISTEE       CLOUDY    66  55  67 S6        29.95F
OSCODA         SUNNY     66  48  52 S15G21    30.07F
PELLSTON       MOSUNNY   69  54  58 SE9       29.98S
ROGERS CITY    SUNNY     67  52  58 S12G17    30.02F
TRAVERSE CITY  PTSUNNY   70  55  59 VRB6      29.95S
$$
MIZ007>008-015-221600-
EASTERN UPPER MICHIGAN

CITY           SKY/WX    TMP DP  RH WIND       PRES   REMARKS
KINROSS        MOSUNNY   66  53  63 S16G24    29.97S
MACKINAC ISLAN MOSUNNY   65  51  59 SE9G17    29.96F
NEWBERRY       CLOUDY    62  57  81 S10       29.92F
S. S. MARIE    CLOUDY    64  53  67 SE8       29.97S
MUNISING         N/A     65  58  78 SW14G23   29.85R
$$
MIZ004>006-011>014-085-221600-
CENTRAL UPPER MICHIGAN

CITY           SKY/WX    TMP DP  RH WIND       PRES   REMARKS
MANISTIQUE     CLOUDY    62  56  81 S10G17    29.90S
ESCANABA       LGT RAIN  58  57  97 S12       29.88R
MENOMINEE      CLOUDY    61  59  93 S13G18    29.87S
SAWYER-GWINN   CLOUDY    59  55  88 S10       29.85S
$$
MIZ001>003-009>011-084-221600-
WESTERN UPPER MICHIGAN

CITY           SKY/WX    TMP DP  RH WIND       PRES   REMARKS
IRON MOUNTAIN  LGT RAIN  53  49  86 W8        29.88R FOG
HOUGHTON       CLOUDY    52  46  80 W15G21    29.84R
COPPER HARBOR    N/A     55  46  71 VRB6G20   29.83R
IRONWOOD       CLOUDY    49  42  77 SW12      29.90R
$$

ABBREVIATIONS USED IN REMARKS
   TC - TEMPERATURE IN CELSIUS
  WCI - WIND CHILL INDEX
   HX - HEAT INDEX
  VSB - VISIBILITY





USA.gov is the U.S. government's official web portal to all federal, state and local government web resources and services.